STARLINK-1328 (45576 NORAD) Tracking and Keplerian Element Data

This shows tracking and keplerian element data for the satellite.

Feedback or suggestion? Click here.




ElementValue
Catalog45576
NameSTARLINK-1328
Epoch Orbit1251
Epoch Day189.16667824
Epoch Year2020
RAAN29.1152
Inclination52.9978
Eccentricity0.0001378
Argument of Perigee29.9285
Mean Anonmoly324.21
Mean Motion15.62763359
Decay Rate-0.0001252
L11 45576U 20025AX 20189.16667824 -.00012520 00000-0 -13105-3 0 9991
L22 45576 52.9978 29.1152 0001378 29.9285 324.2100 15.62763359 12511

Live tracking and technical data element details for STARLINK-1328 (NORAD 45576). STARLINK-1328 can be tracked NOW for your location showing map with azimuth and elevation plus other details from your city location.

Track the satellite on the map from your city or location and see movement details for azimuth, elevation, latitude, longitude, range, height, and movement on the map or in text.







IsCatalogInMostPopularTable: catalog: 45576, numindb: 16
Update: records affected: 1



GetName: 45576 STARLINK-1328

Hit Count: updated at: Wed, 08 Jul 2020 05:39:03 GMT